Preview of NWS' New Version of Forecast
This preview is not operational and should not be used for support decisions.

Regional Weather Roundup (RWR)

Issued by National Weather Service (NWS)

                            
000
ASUS43 KDTX 191910
RWRMI 
MICHIGAN HOURLY REGIONAL WEATHER ROUNDUP
NATIONAL WEATHER SERVICE DETROIT/PONTIAC MI
300 PM EDT WED JUN 19 2019

NOTE: "FAIR" INDICATES FEW OR NO CLOUDS BELOW 12,000 FEET WITH NO
SIGNIFICANT WEATHER AND/OR OBSTRUCTION TO VISIBILITY.

MIZ047>049-052>055-059>063-066>070-074>076-081>083-192000-
SOUTHEAST LOWER MICHIGAN
  
CITY           SKY/WX    TMP DP  RH WIND       PRES   REMARKS
ADRIAN         FAIR      79  60  52 SE7       29.73F                  
ALMA           PTSUNNY   75  60  60 NE6       29.77F                  
ANN ARBOR      FAIR      80  62  54 S8        29.74F                  
BAD AXE        PTSUNNY   63  59  88 NE8       29.79S                  
CARO           PTSUNNY   72  62  72 N5        29.77S                  
DETROIT CITY   FAIR      79  60  52 S9        29.74F                  
DETROIT        PTSUNNY   79  61  53 S6        29.75F                  
FLINT          LGT RAIN  70  66  87 W6        29.76S FOG              
GROSSE ILE     FAIR      73  64  73 S7        29.75F                  
HILLSDALE      FAIR      78  61  55 SE6       29.74F                  
HOWELL         LGT RAIN  76  62  63 W5        29.76S                  

CITY           SKY/WX    TMP DP  RH WIND       PRES   REMARKS
JACKSON        PTSUNNY   80  62  54 CALM      29.74F                  
LAMBERTVILLE   FAIR      80  63  57 E6        29.74F                  
LANSING        LGT RAIN  69  66  90 NW3       29.77F                  
LAPEER         RAIN      78  61  56 SW3       29.76F                  
MASON          LGT RAIN  68  65  92 CALM      29.76F                  
MONROE         FAIR      78  63  60 E7        29.75F                  
MT. CLEMENS    PTSUNNY   76  65  68 SE9       29.74F                  
PONTIAC        CLOUDY    78  58  49 S13       29.73F                  
PORT HOPE        N/A     55  51  86 N5        29.79F                  
PORT HURON     PTSUNNY   81  57  44 S5        29.74F                  
TRI CITIES     FAIR      70  61  73 N12       29.78F                  
MIDLAND        LGT RAIN  69  62  79 E7        29.78S                  
TROY           PTSUNNY   80  56  44 S5        29.76F                  
SAGINAW HB     CLOUDY    70  61  73 N10       29.77F                  
$$
MIZ043>046-050>051-056>058-064>065-071>073-077>080-192000-
SOUTHWEST LOWER MICHIGAN
  
CITY           SKY/WX    TMP DP  RH WIND       PRES   REMARKS
BATTLE CREEK   TSTM      70  66  87 N5        29.75F                  
BENTON HARBOR  FAIR      72  58  61 VRB7      29.74F                  
BIG RAPIDS     LGT RAIN  66  63  90 N5        29.78F                  
COLDWATER      LGT RAIN  75  66  73 S3        29.73F                  
FREMONT        CLOUDY    68  63  84 N7        29.76F                  
HOLLAND        FAIR      77  60  55 N7        29.75F                  
GRAND RAPIDS   PTSUNNY   79  61  53 NE12      29.74F                  
IONIA          CLOUDY    75  59  57 NE6       29.74F                  
KALAMAZOO      PTSUNNY   81  64  56 N13       29.73F                  
LUDINGTON      CLOUDY    63  60  90 N3        29.78F                  
MARSHALL       PTSUNNY   71  71 100 N5        29.74F                  
MOUNT PLEASANT LGT RAIN  69  62  78 NE5       29.77F                  
MUSKEGON       CLOUDY    72  61  68 N9        29.76F                  
SOUTH HAVEN    FAIR      74  59  59 NW7       29.74F                  
$$
MIZ016>042-192000-
NORTHERN LOWER MICHIGAN
  
CITY           SKY/WX    TMP DP  RH WIND       PRES   REMARKS
ALPENA         LGT RAIN  65  56  72 SE6       29.80F                  
BEAVER ISLAND  CLOUDY    64  55  73 NW5       29.82F                  
BELLAIRE       FAIR      70  56  60 N6        29.79F                  
CADILLAC       CLOUDY    66  64  93 CALM      29.79F                  
CHARLEVOIX     FAIR      62  57  84 NW9       29.84F                  
FRANKFORT      FAIR      68  55  63 N8        29.80F                  
GAYLORD        PTSUNNY   69  54  58 NE6       29.79F                  
GRAYLING       CLOUDY    66  61  84 SE7       29.79F                  
HARBOR SPRINGS FAIR      65  56  72 SW8       29.80F                  
HOUGHTON LAKE  CLOUDY    62  57  83 NE5       29.81S                  
MANISTEE       PTSUNNY   64  57  78 NW10      29.78F                  
OSCODA         CLOUDY    62  52  68 E6        29.79S                  
PELLSTON       CLOUDY    68  55  63 NE3       29.81F                  
ROGERS CITY    FAIR      61  54  77 NE6       29.82F                  
TRAVERSE CITY  PTSUNNY   65  57  75 N7        29.79F                  
$$
MIZ007>008-015-192000-
EASTERN UPPER MICHIGAN
  
CITY           SKY/WX    TMP DP  RH WIND       PRES   REMARKS
KINROSS        CLOUDY    67  56  67 CALM      29.81F                  
MACKINAC ISLAN PTSUNNY   66  56  70 W5        29.81F                  
NEWBERRY       CLOUDY    67  59  75 N9        29.82S                  
S. S. MARIE    CLOUDY    69  57  65 NW8       29.80F                  
MUNISING         N/A     52  47  83 NE8       29.86S                  
$$
MIZ004>006-011>014-085-192000-
CENTRAL UPPER MICHIGAN
  
CITY           SKY/WX    TMP DP  RH WIND       PRES   REMARKS
MANISTIQUE     CLOUDY    65  57  74 N7        29.82F                  
ESCANABA       PTSUNNY   65  55  70 SE10      29.82F                  
MENOMINEE      FAIR      67  55  65 E10       29.82F                  
SAWYER-GWINN   SUNNY     63  50  63 NE9       29.87R                  
$$
MIZ001>003-009>011-084-192000-
WESTERN UPPER MICHIGAN
  
CITY           SKY/WX    TMP DP  RH WIND       PRES   REMARKS
IRON MOUNTAIN  PTSUNNY   72  49  44 NE8       29.82F                  
HOUGHTON       FAIR      70  46  42 SE9       29.86F                  
COPPER HARBOR    N/A     52  48  86 N6        29.88F                  
IRONWOOD       FAIR      69  47  45 VRB7      29.86F                  
$$

ABBREVIATIONS USED IN REMARKS
   TC - TEMPERATURE IN CELSIUS
  WCI - WIND CHILL INDEX
   HX - HEAT INDEX
  VSB - VISIBILITY